Погода в Дрогобыче

Украина / Львовская область     49°21′13″N   23°30′32″E
темп.,
°C
ветер,
м/с
пор.,
м/с
влажн.,
%
обл.,
%
осадки,
мм/ч
давл.,
гПа
погр.,
м
4 марта, чт
чт423:00+4юз4128122 0.0 1025268
02:00+4юз6178211 0.0 1023458
05:00+5юз7177518 0.0 1020502
08:00+4юз5157727 0.0 1019406
11:00+8юз6126180 0.0 1017595
14:00+10зюз5105540 0.0 10141090
17:00+8зюз510662 0.0 1013738
20:00+6юз3127747 0.0 1014434
5 марта, пт
пт523:00+5юз2990100 1.6 1013446
02:00+4вюв0196100 3.5 101262
05:00+3с2298100 1.5 1011138
08:000ссз4799100 7.1 1012336
11:000ссз3598100 4.7 1014366
14:00−1с4797100 7.2 1015487
17:00−1ссв4897100 3.8 1018556
20:00−3ссз2793100 5.0 1021443
6 марта, сб
сб623:00−6сз239071 0.0 102451
02:00−7з238835 0.0 102633
05:00−7з23840 0.0 102743
08:00−6з25848 0.0 1029177
11:00−2сз477722 0.1 10301162
14:00−1сз576645 0.5 10301496
17:00−2сз367362 0.1 10311104
20:00−5юз228464 0.1 103224
7 марта, вс
вс723:00−6юз33830 0.0 103269
02:00−6юз35810 0.0 1031103
05:00−5юз313770 0.0 1028452
08:00−4юз615710 0.0 1027588
11:00+1зюз712620 0.0 10251018
14:00+2зюз711600 0.0 10231108
17:00+1зюз613649 0.0 1020778
20:00−1юз615705 0.0 1020502
8 марта, пн
пн823:00−2юз515720 0.0 1020468
02:00−2зюз413763 0.0 1019389
05:00−3юз3108095 0.0 1018268
08:00−2юз397898 0.0 1018274
11:00+2з466588 0.0 10171185
14:00+3зсз476995 0.1 10161226
17:00+1зсз4877100 0.2 1016950
20:00−2зсз259896 0.9 1019259